sat.trackr.live / text

‹ back to catalog

BNU-1 (JINGSHI 1)

NORAD 44529 · 2019-059B

PAYLOAD ACTIVE UNKNOWN

§ Identity

Operator
Country
PRC
Launch date
2019-09-12
Launch site
TAISC
Launch vehicle
Mass (kg)
RCS (m²)

External: N2YO · Heavens-Above · Gunter

§ Orbital elements

Epoch: 2026-05-25T03:33:10.344960Z

Period
99.42 min
Inclination
98.6031°
Eccentricity
0.0014441
Mean motion
14.48366571 rev/d
Perigee alt
720.7 km
Apogee alt
741.3 km
Semi-major
7,109.1 km
B*
8.8033e-5
RAAN
273.8100°
Arg perigee
84.3629°
Mean anomaly
275.9210°
Rev number
35,365

§ Raw data

BNU-1 (JINGSHI 1)1 44529U 19059B   26145.14803640  .00000284  00000+0  88033-4 0  99912 44529  98.6031 273.8100 0014441  84.3629 275.9210 14.48366571353653

JSON: /api/v1/satellites/44529 · /tle

For live sub-satellite position, see the globe view (requires WebGL).

§ Visibility from observer

Set your observer location to see the next 7 days of passes ≥ 10°. The values pass through the URL so the page stays shareable.

No JS? Fill the form by hand. The geolocation button needs JavaScript.

§ Radio — SatNOGS DB

ModeDescriptionDownlinkUplink
BPSK S-band telemetry 2.262 GHz

1 transmitter · refreshed weekly from db.satnogs.org